ZIYUAN 3-1 (ZY 3-1)

Last updated on Tue Sep 16 2025 00:02:30 GMT+0000 (Coordinated Universal Time)

1 38046U 12001A 25258.63091543 .00024625 00000+0 34562-3 0 9999 2 38046 97.1914 323.7551 0001001 296.8708 63.2445 15.56724292761216
UTC large
Height (km)
Speed (km/s)
/
Latitude / Longitude
Inclination (degrees)
Orbital Period (minutes)
Azimuth
Elevation
Range (km)
Doppler Factor

Next 0 passes for location: London (51.5072 / 0.1276)

Sorry there are no passes over London.